Location: Newark
(44.6768°N, 22.5302°E)
Time: 00:54:57
(UTC+00:00)

ZACube-1 - Pass Details

Date: 04 July 2022
Orbit: 582 x 661 km, 97.6° (Epoch: 08 August)

Event Time Altitude Azimuth Distance (km) Brightness Sun altitude
Rises 01:28:15 0° 26° (NNE) 2,965 ? -11.6°
Reaches altitude 10° 01:30:53 10° 41° (NE) 2,061 ? -11.3°
Maximum altitude 01:34:25 22° 93° (E) 1,422 ? -10.9°
Drops below altitude 10° 01:37:56 10° 144° (SE) 2,069 ? -10.5°
Sets 01:40:35 0° 160° (SSE) 2,980 ? -10.2°
